Location: Unspecified
(0.0000°N, 0.0000°E)
Time: 17:32:40
(UTC+00:00)

SAR-Lupe-2 - Visible Passes

Search period start: 12 November 2018 00:00
Search period end: 22 November 2018 00:00
Orbit: 479 x 487 km, 98.2° (Epoch: 08 November)

Date Brightness Start Highest point End Pass type
(mag) Time Alt. Az. Time Alt. Az. Time Alt. Az.
12 Nov 6.1 03:52:56 10° SE 03:55:33 20° ENE 03:57:56 11° NNE visible
13 Nov 4.7 05:00:48 10° SSW 05:03:46 25° WSW 05:06:45 10° NW visible
14 Nov 3.4 04:35:24 10° S 04:38:56 73° WSW 04:41:58 14° NNW visible
15 Nov 4.9 04:10:47 10° SSE 04:14:05 37° ENE 04:16:47 14° NNE visible
16 Nov 6.5 03:47:12 10° ESE 03:49:14 15° ENE 03:51:16 10° NE visible
17 Nov 4.2 04:54:11 10° SSW 04:57:27 34° WSW 05:00:42 10° NW visible
18 Nov 3.6 04:29:03 10° SSE 04:32:36 79° ENE 04:35:37 14° N visible
19 Nov 5.5 04:04:41 10° SE 04:07:44 27° ENE 04:10:27 12° NNE visible
20 Nov 6.7 03:42:01 10° E 03:42:53 11° ENE 03:43:46 10° ENE visible
20 Nov 5.1 05:13:26 10° SSW 05:15:56 18° WSW 05:18:27 10° WNW visible
21 Nov 3.8 04:47:38 10° S 04:51:05 48° WSW 04:54:25 11° NNW visible
